Printer-friendly version

IAU Minor Planet Center

Minor Planet Center

17P/Holmes

Orbital Elements

The following orbital elements are taken from MPC 51822:
17P/Holmes
Epoch 2007 May 20.0 TT = JDT 2454240.5
T 2007 May 4.4995 TT                                    MPC
q   2.053169             (2000.0)            P               Q
n   0.1432508      Peri.   24.2585      +0.9756506      +0.1267918
a   3.617468       Node   326.8675      -0.2124462      +0.7491399
e   0.432429       Incl.   19.1132      +0.0545208      +0.6501640
P   6.88
From 139 observations 1964-2001, mean residual 0".7.  Nongravitational
     parameters A1 = +0.19, A2 = +0.0287.
Elements are also available for the current standard epoch:
17P/Holmes
Epoch 2009 June 18.0 TT = JDT 2455000.5
T 2007 May 4.8086 TT                                    MPC
q   2.053122             (2000.0)            P               Q
n   0.1430936      Peri.   24.3224      +0.9757459      +0.1259243
a   3.620117       Node   326.8536      -0.2118406      +0.7493193
e   0.432857       Incl.   19.1161      +0.0551679      +0.6501258
P   6.89
An explanation of the orbital elements is available.

These orbital elements are also available in forms suitable for loading into a number of popular planetarium-type software programs.


Ephemeris

The following ephemeris is at intervals of five days. A daily ephemeris covering the same time interval is also available.

Personalized ephemerides for this (and other) objects may be generated using the Minor Planet & Comet Ephemeris Service.

Recent magnitude estimates for this comet (as reported to the ICQ) may be available.

Date    TT    R. A. (2000) Decl.     Delta      r     Elong.  Phase   m1    m2

WARNING!

This comet gets close to the sun during the period covered in the ephemeris below. Observers are warned to be wary of observing comets near the sun. NEVER point any kind of optical instrument at the sun--instant blindness will be the probable result.

2009 06 08 08 45.65 +20 47.1 5.172 4.602 51.1 9.9 21.5 2009 06 13 08 49.43 +20 23.6 5.243 4.614 47.3 9.3 21.5 2009 06 18 08 53.32 +19 59.6 5.310 4.626 43.5 8.7 21.5 2009 06 23 08 57.31 +19 35.1 5.374 4.638 39.7 8.1 21.5 2009 06 28 09 01.40 +19 10.2 5.433 4.649 36.0 7.4 21.5 2009 07 03 09 05.55 +18 44.9 5.488 4.661 32.3 6.7 21.5 2009 07 08 09 09.76 +18 19.2 5.539 4.672 28.6 6.0 21.5 2009 07 13 09 14.02 +17 53.1 5.585 4.683 24.9 5.3 21.5 2009 07 18 09 18.32 +17 26.6 5.627 4.694 21.3 4.5 21.5 2009 07 23 09 22.65 +16 59.7 5.663 4.705 17.6 3.7 21.5 2009 07 28 09 26.99 +16 32.6 5.695 4.716 14.0 3.0 21.5 2009 08 02 09 31.33 +16 05.2 5.721 4.727 10.4 2.2 21.4 2009 08 07 09 35.68 +15 37.5 5.743 4.737 6.7 1.4 21.4 2009 08 12 09 40.00 +15 09.6 5.759 4.748 3.2 0.7 21.3 2009 08 17 09 44.31 +14 41.6 5.770 4.758 1.2 0.3 21.3 2009 08 22 09 48.58 +14 13.4 5.776 4.768 4.5 1.0 21.3 2009 08 27 09 52.81 +13 45.1 5.776 4.778 8.1 1.7 21.4 2009 09 01 09 56.99 +13 16.9 5.771 4.788 11.8 2.5 21.5 2009 09 06 10 01.11 +12 48.6 5.761 4.798 15.6 3.2 21.5 2009 09 11 10 05.16 +12 20.5 5.746 4.808 19.3 4.0 21.6 2009 09 16 10 09.13 +11 52.4 5.726 4.817 23.1 4.7 21.6 2009 09 21 10 13.01 +11 24.6 5.700 4.827 26.9 5.4 21.6 2009 09 26 10 16.78 +10 57.0 5.670 4.836 30.8 6.1 21.7 2009 10 01 10 20.45 +10 29.8 5.635 4.845 34.7 6.8 21.7 2009 10 06 10 23.99 +10 03.0 5.595 4.854 38.6 7.4 21.7 2009 10 11 10 27.40 +09 36.7 5.550 4.863 42.6 8.0 21.7 2009 10 16 10 30.66 +09 10.9 5.501 4.872 46.7 8.6 21.7 2009 10 21 10 33.77 +08 45.8 5.449 4.881 50.8 9.1 21.7 2009 10 26 10 36.69 +08 21.5 5.392 4.889 54.9 9.6 21.7 2009 10 31 10 39.44 +07 58.0 5.332 4.898 59.2 10.0 21.7 2009 11 05 10 41.98 +07 35.4 5.268 4.906 63.4 10.4 21.7 2009 11 10 10 44.30 +07 13.8 5.202 4.914 67.8 10.8 21.7 2009 11 15 10 46.39 +06 53.3 5.133 4.922 72.2 11.0 21.7 2009 11 20 10 48.24 +06 34.0 5.063 4.930 76.7 11.2 21.7 2009 11 25 10 49.82 +06 16.1 4.990 4.938 81.3 11.4 21.7 2009 11 30 10 51.13 +05 59.5 4.917 4.946 85.9 11.5 21.6 2009 12 05 10 52.14 +05 44.5 4.843 4.953 90.7 11.5 21.6 2009 12 10 10 52.85 +05 31.1 4.769 4.961 95.5 11.4 21.6 2009 12 15 10 53.23 +05 19.3 4.695 4.968 100.4 11.2 21.5 2009 12 20 10 53.29 +05 09.3 4.622 4.975 105.4 11.0 21.5 2009 12 25 10 53.01 +05 01.2 4.552 4.982 110.5 10.7 21.5 2009 12 30 10 52.38 +04 54.9 4.483 4.989 115.7 10.2 21.4 2010 01 04 10 51.41 +04 50.6 4.418 4.996 121.0 9.7 21.4 2010 01 09 10 50.10 +04 48.2 4.357 5.003 126.4 9.1 21.3 2010 01 14 10 48.46 +04 47.7 4.300 5.010 131.8 8.4 21.2 2010 01 19 10 46.49 +04 49.1 4.248 5.016 137.4 7.6 21.2 2010 01 24 10 44.22 +04 52.2 4.201 5.022 143.0 6.8 21.1 2010 01 29 10 41.67 +04 57.1 4.162 5.029 148.6 5.9 21.1 2010 02 03 10 38.89 +05 03.5 4.128 5.035 154.3 4.9 21.0 2010 02 08 10 35.91 +05 11.2 4.102 5.041 160.1 3.8 20.9 2010 02 13 10 32.76 +05 20.1 4.084 5.047 165.7 2.8 20.9 2010 02 18 10 29.51 +05 30.0 4.073 5.052 171.2 1.7 20.8 2010 02 23 10 26.20 +05 40.5 4.071 5.058 175.6 0.9 20.7 2010 02 28 10 22.89 +05 51.3 4.077 5.064 174.5 1.1 20.7 2010 03 05 10 19.63 +06 02.3 4.091 5.069 169.6 2.0 20.8 2010 03 10 10 16.47 +06 13.2 4.112 5.074 164.0 3.1 20.9 2010 03 15 10 13.46 +06 23.7 4.142 5.079 158.4 4.1 21.0 2010 03 20 10 10.64 +06 33.6 4.178 5.085 152.8 5.1 21.1 2010 03 25 10 08.06 +06 42.7 4.222 5.089 147.2 6.1 21.1 2010 03 30 10 05.74 +06 50.7 4.272 5.094 141.7 7.0 21.2 2010 04 04 10 03.71 +06 57.6 4.329 5.099 136.3 7.8 21.3 2010 04 09 10 01.99 +07 03.3 4.390 5.103 131.0 8.5 21.3 2010 04 14 10 00.60 +07 07.5 4.456 5.108 125.8 9.2 21.4 2010 04 19 09 59.53 +07 10.4 4.527 5.112 120.6 9.7 21.5 2010 04 24 09 58.80 +07 11.7 4.601 5.116 115.6 10.2 21.5 2010 04 29 09 58.41 +07 11.5 4.678 5.121 110.7 10.6 21.6 2010 05 04 09 58.33 +07 09.8 4.757 5.124 105.8 10.9 21.6 2010 05 09 09 58.57 +07 06.5 4.838 5.128 101.1 11.1 21.7 2010 05 14 09 59.12 +07 01.8 4.920 5.132 96.4 11.3 21.7 2010 05 19 09 59.96 +06 55.5 5.003 5.136 91.8 11.4 21.7 2010 05 24 10 01.08 +06 47.8 5.085 5.139 87.4 11.4 21.8 2010 05 29 10 02.46 +06 38.6 5.167 5.142 83.0 11.3 21.8 2010 06 03 10 04.09 +06 28.1 5.249 5.146 78.6 11.1 21.8 2010 06 08 10 05.95 +06 16.2 5.329 5.149 74.4 10.9 21.9 2010 06 13 10 08.02 +06 02.9 5.407 5.152 70.2 10.7 21.9 2010 06 18 10 10.29 +05 48.5 5.483 5.155 66.0 10.4 21.9 2010 06 23 10 12.75 +05 32.7 5.557 5.158 61.9 10.0 21.9 2010 06 28 10 15.38 +05 15.9 5.628 5.160 57.9 9.6 21.9 2010 07 03 10 18.16 +04 57.9 5.696 5.163 53.9 9.2 22.0 2010 07 08 10 21.08 +04 38.8 5.760 5.165 50.0 8.7 22.0 2010 07 13 10 24.14 +04 18.7 5.820 5.167 46.1 8.1 22.0

Back to Observable Comets


Valid HTML 4.01!